Location: Mentone
(34.5413°N, 85.5351°W)
Time: 18:05:33
(UTC-05:00)

Tiros 1 despin weight - Visible Passes

Search period start: 22 October 2014 00:00
Search period end: 01 November 2014 00:00
Orbit: 601 x 652 km, 48.2° (Epoch: 22 October)

Date Brightness Start Highest point End Pass type
(mag) Time Alt. Az. Time Alt. Az. Time Alt. Az.
26 Oct ? 05:33:10 10° SSE 05:35:51 15° SE 05:38:31 10° E visible
27 Oct ? 05:50:31 10° SSW 05:54:44 33° SE 05:58:56 10° ENE visible
28 Oct ? 04:31:59 10° SE 04:32:38 10° SE 04:33:17 10° ESE visible
28 Oct ? 06:09:04 10° SW 06:13:46 73° SE 06:18:25 10° ENE visible
29 Oct ? 04:49:20 18° S 04:51:27 24° SE 04:55:12 10° ENE visible
29 Oct ? 06:28:19 10° WSW 06:32:57 57° NNW 06:37:33 10° NE visible
30 Oct ? 05:08:45 35° SSW 05:10:23 52° SE 05:14:57 10° ENE visible
31 Oct ? 03:50:40 12° E 03:50:40 12° E 03:51:12 10° E visible
31 Oct ? 05:27:56 42° WSW 05:29:29 76° NW 05:34:11 10° NE visible
